Location: Gleizolles
(44.4833°N, 6.7667°E)
Time: 14:21:44
(UTC+00:00)

deb Explorer IX - Pass Details

Date: 02 July 2024
Orbit: 510 x 878 km, 38.7° (Epoch: 21 July)

Event Time Altitude Azimuth Distance (km) Brightness Sun altitude
Rises 08:33:12 0° 265° (W) 2,695 ? 46.9°
Reaches altitude 10° 08:36:07 10° 242° (WSW) 1,855 ? 47.4°
Maximum altitude 08:38:41 16° 205° (SSW) 1,574 ? 47.8°
Drops below altitude 10° 08:41:22 10° 168° (SSE) 1,971 ? 48.3°
Sets 08:44:37 0° 147° (SSE) 2,962 ? 48.9°
